{"data":{"norad_id":53027,"intl_designator":"2022-076AT","name":"STARLINK-4158","alt_names":[],"object_type":"PAYLOAD","status":"ACTIVE","operator":null,"country":"US","launch_date":"2022-07-07","launch_site_code":"AFETR","launch_vehicle":null,"mission":null,"orbit_class":"UNKNOWN","rcs_meters":null,"size_class":null,"mass_kg":null,"dimensions":null,"purposes":["comms"],"wikipedia_slug":null,"has_3d_model":false,"image_url":null,"decayed_at":null,"tle_current":{"epoch":"2026-05-25T03:40:56.269920Z","epoch_age_seconds":55779,"freshness":"FRESH","line1":"1 53027U 22076AT  26145.15342905  .00005456  00000+0  36091-3 0  9992","line2":"2 53027  53.2136 100.8595 0001468  84.9462 275.1698 15.08810879214539","mean_motion":15.08810879,"eccentricity":0.0001468,"inclination_deg":53.2136,"raan_deg":100.8595,"arg_perigee_deg":84.9462,"mean_anomaly_deg":275.1698,"bstar":0.00036091,"rev_number":21453,"period_min":95.439396682664,"perigee_km":538.81684373455,"apogee_km":540.84795955087,"semimajor_km":6917.9694016427,"source":"CELESTRAK","updated_at":"2026-05-25T13:38:17.282656Z"}}}